吉林一号 高分 3D33 (JILIN-1 GAOFEN 3D33)

导读 | 豆包AI

JILIN-01 GAOFEN 3D 33(吉林一号高分3D 33)是中国于北京时间2022年5月5日发射的商业遥感卫星,隶属于吉林一号星座,由长光卫星技术股份有限公司研制运营。该卫星采用三轴稳定控制,运行于近地太阳同步轨道,具备高分辨率对地观测能力,可为农业监测、城市规划、环境评估等领域提供高精度遥感数据,推动我国商业遥感产业发展,目前仍在轨稳定运行。

基本信息
目录编号:
52450
目录名称:
JILIN-01 GAOFEN 3D 33
国际标识:
2022-048H
轨道中心:
EARTH
卫星名称:
高分 3D33
卫星全名:
吉林一号 高分 3D33 (JILIN-1 GAOFEN 3D33)
卫星状态:
已陨落 最后检测时间 2025-11-22
发射日期:
2022-05-05 UTC
国别 :
中国 (CN)
星等 :
--
轨道信息
数据来源 国际轨道数据
星历时间: 2025-11-23T06:21:41+0800
轨道信息已过期111天
半长轴: 6518.972km
偏心率: 0.0009051
轨道倾角: 97.550°
近地点辐角 264.190°
升交点赤经 77.568°
平近点角 95.838°
近地点: 134.936km
远地点: 146.738km
周期: 87.303分钟
每日圈数: 16.494308
详细信息
卫星平台:
高分卫星平台
平衡模式:
三轴稳定
覆盖范围:
全球
运营商:
长光卫星技术股份有限公司
运营商所在国:
中国
制造商(研发单位):
长光卫星技术股份有限公司
制造商所在国:
中国
使用方式:
暂无
卫星简介
“吉林一号”卫星星座(JiLin-1)是长光卫星技术有限公司在建的核心工程,是我国目前最大的商业遥感卫星星座,具备了较强的服务能力。该卫星仍在工作。